This is the latest recevied weather packets stored in our database for station/object SQ5BUJ-13. If no packets are shown the sender has not sent any weather packets the latest 10 day(s).
| Time | Temp. | Humidity | Pressure | Rain* | Wind** | Luminosity | Snow |
|---|---|---|---|---|---|---|---|
| 1777972071 | 21.67° C | 43% | 1009.8 hPa | - | - | - | - |
| 1777970386 | 21.67° C | 43% | 1009.8 hPa | - | - | - | - |
| 1777968701 | 19.44° C | 50% | 1010.4 hPa | - | - | - | - |
| 1777967113 | 19.44° C | 50% | 1010.4 hPa | - | - | - | - |
| 1777965544 | 19.44° C | 50% | 1010.4 hPa | - | - | - | - |
| 1777964026 | 16.67° C | 60% | 1010.6 hPa | - | - | - | - |
| 1777962461 | 16.67° C | 60% | 1010.6 hPa | - | - | - | - |
| 1777959242 | 16.11° C | 63% | 1010.8 hPa | - | - | - | - |
| 1777957556 | 15° C | 70% | 1010.7 hPa | - | - | - | - |
| 1777956076 | 15° C | 70% | 1010.7 hPa | - | - | - | - |
| 1777954571 | 15° C | 70% | 1010.7 hPa | - | - | - | - |
| 1777949966 | 13.33° C | 68% | 1011.1 hPa | - | - | - | - |
| 1777946830 | 12.78° C | 69% | 1011.2 hPa | - | - | - | - |
| 1777945156 | 12.78° C | 69% | 1011.2 hPa | - | - | - | - |
| 1777943396 | 13.33° C | 64% | 1011.3 hPa | - | - | - | - |
| 1777941661 | 13.33° C | 64% | 1011.3 hPa | - | - | - | - |
| 1777939956 | 15.56° C | 58% | 1011.4 hPa | - | - | - | - |
| 1777936606 | 15.56° C | 58% | 1011.4 hPa | - | - | - | - |
| 1777935116 | 18.89° C | 45% | 1011.5 hPa | - | - | - | - |
| 1777933556 | 18.89° C | 45% | 1011.5 hPa | - | - | - | - |
| 1777932010 | 19.44° C | 41% | 1011.5 hPa | - | - | - | - |
| 1777930290 | 19.44° C | 41% | 1011.5 hPa | - | - | - | - |
| 1777928566 | 19.44° C | 40% | 1011.1 hPa | - | - | - | - |
| 1777926946 | 19.44° C | 40% | 1011.1 hPa | - | - | - | - |
| 1777925341 | 19.44° C | 40% | 1011 hPa | - | - | - | - |
* Rain since midnight (hover to see other rain measurements)
** Current wind speed in m/s (hover to see current wind gust speed)